Stavros S. Niarchos — MZIU7 — position and weather

sailwx.info

Track history (hours):
 
Tides and Currents Weather Stations Pressure Air Temp Water Temp Dewpoint Dewpoint Depression Visibility Wind Speed Wind Dir Waves Ship Positions

Stavros S. Niarchos

See http://www.classic-sailing.co.uk/ for bookings.

Ship's website: http://www.tallships.org/

Last reported at 2017-Nov-18 18:04 UTC. Time now 2017-Nov-18 19:54 UTC.
Position N 36°48' E 014°22'.

Length 59.4 m; beam 9.9 m; draft 4.5 m.

Type: Sailing vessel. MMSI: 232007330.

Date/timePositionNaut miles runAvg speedWind from/ knotsBaromVisibWave heightAir tempDewpointWater temp
2017-Nov-18 18:04N 36°48' E 014°22'1 9.9
2017-Nov-18 18:00N 36°48' E 014°22'5 9.8
2017-Nov-18 17:30N 36°51' E 014°16'5 9.5
2017-Nov-18 17:00N 36°53' E 014°11'5 9.2
2017-Nov-18 16:30N 36°55' E 014°06'5 9.2
2017-Nov-18 16:00N 36°57' E 014°01'5 9.2
2017-Nov-18 15:30N 36°59' E 013°56'6 9.7
2017-Nov-18 14:53N 37°02' E 013°49'  
2017-Nov-15 07:15N 37°32' W 000°21'16 7.3
2017-Nov-15 05:07N 37°28' W 000°40'2 7.2
2017-Nov-15 04:49N 37°28' W 000°43'2 7.1
2017-Nov-15 04:30N 37°27' W 000°45'5 7.1
2017-Nov-15 03:49N 37°25' W 000°51'  
2017-Nov-12 05:52N 36°08' W 005°22'0 0.0
2017-Nov-12 04:43N 36°08' W 005°22'0 0.0
2017-Nov-12 04:25N 36°08' W 005°22'0 0.0
2017-Nov-12 03:58N 36°08' W 005°22'0 0.0
2017-Nov-12 03:25N 36°08' W 005°22'0 0.0
2017-Nov-12 02:58N 36°08' W 005°22'0 0.0
2017-Nov-12 02:22N 36°08' W 005°22'0 0.0
2017-Nov-12 01:55N 36°08' W 005°22'0 0.0
2017-Nov-11 22:13N 36°08' W 005°22'0 0.0
2017-Nov-11 19:43N 36°08' W 005°22'0 0.0
2017-Nov-11 17:37N 36°08' W 005°22'0 0.0
2017-Nov-11 17:19N 36°08' W 005°22'0 0.0
2017-Nov-11 16:49N 36°08' W 005°22'0 0.0
2017-Nov-11 06:44N 36°09' W 005°22'0 0.2
2017-Nov-11 05:52N 36°08' W 005°22'0 0.0
2017-Nov-11 05:20N 36°08' W 005°22'0 0.0
2017-Nov-11 04:57N 36°08' W 005°22'0 0.0
2017-Nov-11 04:20N 36°08' W 005°22'0 0.0
2017-Nov-11 03:54N 36°08' W 005°22'0 0.0
2017-Nov-11 03:26N 36°08' W 005°22'0 0.0
2017-Nov-11 00:41N 36°08' W 005°22'0 0.0
2017-Nov-11 00:26N 36°08' W 005°22'0 0.0
2017-Nov-10 22:31N 36°08' W 005°22'0 0.0
2017-Nov-10 22:16N 36°08' W 005°22'0 0.0
2017-Nov-10 22:00N 36°08' W 005°22'0 0.0
2017-Nov-10 21:22N 36°08' W 005°22'0 0.0
2017-Nov-10 20:58N 36°08' W 005°22'0 0.0
2017-Nov-10 20:13N 36°08' W 005°22'8 1.1
2017-Nov-10 12:27N 36°02' W 005°15'2 4.4
2017-Nov-10 12:00N 36°01' W 005°16'2 4.6
2017-Nov-10 11:30N 35°60' W 005°19'2 4.3
2017-Nov-10 11:00N 35°59' W 005°21'  
Track history (hours):
 
Tides and Currents Weather Stations Pressure Air Temp Water Temp Dewpoint Dewpoint Depression Visibility Wind Speed Wind Dir Waves Ship Positions

Stavros S. Niarchos

See http://www.classic-sailing.co.uk/ for bookings.

Ship's website: http://www.tallships.org/

Last reported at 2017-Nov-18 18:04 UTC. Time now 2017-Nov-18 19:54 UTC.
Position N 36°48' E 014°22'.

Length 59.4 m; beam 9.9 m; draft 4.5 m.

Type: Sailing vessel. MMSI: 232007330.

Date/timePositionNaut miles runAvg speedWind from/ knotsBaromVisibWave heightAir tempDewpointWater temp
2017-Nov-18 18:04N 36°48' E 014°22'1 9.9
2017-Nov-18 18:00N 36°48' E 014°22'5 9.8
2017-Nov-18 17:30N 36°51' E 014°16'5 9.5
2017-Nov-18 17:00N 36°53' E 014°11'5 9.2
2017-Nov-18 16:30N 36°55' E 014°06'5 9.2
2017-Nov-18 16:00N 36°57' E 014°01'5 9.2
2017-Nov-18 15:30N 36°59' E 013°56'6 9.7
2017-Nov-18 14:53N 37°02' E 013°49'  
2017-Nov-15 07:15N 37°32' W 000°21'16 7.3
2017-Nov-15 05:07N 37°28' W 000°40'2 7.2
2017-Nov-15 04:49N 37°28' W 000°43'2 7.1
2017-Nov-15 04:30N 37°27' W 000°45'5 7.1
2017-Nov-15 03:49N 37°25' W 000°51'  
2017-Nov-12 05:52N 36°08' W 005°22'0 0.0
2017-Nov-12 04:43N 36°08' W 005°22'0 0.0
2017-Nov-12 04:25N 36°08' W 005°22'0 0.0
2017-Nov-12 03:58N 36°08' W 005°22'0 0.0
2017-Nov-12 03:25N 36°08' W 005°22'0 0.0
2017-Nov-12 02:58N 36°08' W 005°22'0 0.0
2017-Nov-12 02:22N 36°08' W 005°22'0 0.0
2017-Nov-12 01:55N 36°08' W 005°22'0 0.0
2017-Nov-11 22:13N 36°08' W 005°22'0 0.0
2017-Nov-11 19:43N 36°08' W 005°22'0 0.0
2017-Nov-11 17:37N 36°08' W 005°22'0 0.0
2017-Nov-11 17:19N 36°08' W 005°22'0 0.0
2017-Nov-11 16:49N 36°08' W 005°22'0 0.0
2017-Nov-11 06:44N 36°09' W 005°22'0 0.2
2017-Nov-11 05:52N 36°08' W 005°22'0 0.0
2017-Nov-11 05:20N 36°08' W 005°22'0 0.0
2017-Nov-11 04:57N 36°08' W 005°22'0 0.0
2017-Nov-11 04:20N 36°08' W 005°22'0 0.0
2017-Nov-11 03:54N 36°08' W 005°22'0 0.0
2017-Nov-11 03:26N 36°08' W 005°22'0 0.0
2017-Nov-11 00:41N 36°08' W 005°22'0 0.0
2017-Nov-11 00:26N 36°08' W 005°22'0 0.0
2017-Nov-10 22:31N 36°08' W 005°22'0 0.0
2017-Nov-10 22:16N 36°08' W 005°22'0 0.0
2017-Nov-10 22:00N 36°08' W 005°22'0 0.0
2017-Nov-10 21:22N 36°08' W 005°22'0 0.0
2017-Nov-10 20:58N 36°08' W 005°22'0 0.0
2017-Nov-10 20:13N 36°08' W 005°22'8 1.1
2017-Nov-10 12:27N 36°02' W 005°15'2 4.4
2017-Nov-10 12:00N 36°01' W 005°16'2 4.6
2017-Nov-10 11:30N 35°60' W 005°19'2 4.3
2017-Nov-10 11:00N 35°59' W 005°21'  

Dump ship's entire track history